Weather History for KFTW - July, 2013

Change the Weather History Date:

Saturday, July 13, 2013

  Actual Average Record
Temperature  
Mean Temperature 90 °F -  
Max Temperature 100 °F 94 °F 104 °F (2000)
Min Temperature 80 °F 73 °F 68 °F (1999)
Cooling Degree Days 25    
Growing Degree Days 40 (Base 50)    
Moisture  
Dew Point 67 °F    
Average Humidity 50    
Maximum Humidity 74    
Minimum Humidity 32    
Precipitation  
Precipitation 0.00 in - - ()
Sea Level Pressure  
Sea Level Pressure 29.90 in    
Wind  
Wind Speed 9 mph (ESE)    
Max Wind Speed 15 mph    
Max Gust Speed 21 mph    
Visibility 10 miles    
Events      
Averages and records for this station are not official NWS values.
T = Trace of Precipitation, MM = Missing Value Source: NWS Daily Summary

Daily Weather History Graph

Daily Weather History Graph

Search for Another Location

Airport or City:

Trip Planner

Search our weather history database for the weather conditions in past years. The results will help you decide how hot, cold, wet, or windy it might be!

Date:

Astronomy

Jul. 13, 2013 Rise Set
Actual Time 6:31 AM CDT 8:39 PM CDT
Civil Twilight 6:03 AM CDT 9:07 PM CDT
Nautical Twilight 5:28 AM CDT 9:41 PM CDT
Astronomical Twilight 4:51 AM CDT 10:18 PM CDT
Moon 11:28 AM CDT (7/13) 11:41 PM CDT (7/13)
Length of Visible Light 15h 04m
Length of Day
14h 08m
Waxing Crescent, 26% of the Moon is Illuminated
Jul 13
Waxing Crescent
Jul 15
First Quarter
Jul 22
Full
Jul 29
Last Quarter
Aug 6
New

Hourly Weather History & Observations

Time (CDT) Temp. Heat Index Dew Point Humidity Pressure Visibility Wind Dir Wind Speed Gust Speed Precip Events Conditions
12:53 AM 87.1 °F 90.6 °F 68.0 °F 53% 29.90 in 10.0 mi ESE 8.1 mph - N/A   Clear
1:53 AM 84.9 °F 88.2 °F 68.0 °F 57% 29.90 in 10.0 mi ESE 8.1 mph - N/A   Clear
2:53 AM 84.0 °F 88.4 °F 70.0 °F 63% 29.90 in 10.0 mi East 8.1 mph - N/A   Clear
3:53 AM 82.9 °F 87.0 °F 70.0 °F 65% 29.90 in 10.0 mi ESE 6.9 mph - N/A   Clear
4:53 AM 82.0 °F 85.9 °F 70.0 °F 67% 29.90 in 10.0 mi ESE 10.4 mph - N/A   Clear
5:53 AM 81.0 °F 84.4 °F 70.0 °F 69% 29.92 in 10.0 mi SE 9.2 mph - N/A   Clear
6:53 AM 80.1 °F 83.6 °F 71.1 °F 74% 29.93 in 10.0 mi ESE 8.1 mph - N/A   Clear
7:53 AM 81.0 °F 84.9 °F 71.1 °F 72% 29.95 in 10.0 mi ESE 10.4 mph - N/A   Clear
8:53 AM 82.9 °F 87.5 °F 71.1 °F 67% 29.96 in 10.0 mi ESE 9.2 mph - N/A   Clear
9:53 AM 86.0 °F 91.5 °F 71.1 °F 61% 29.96 in 10.0 mi SE 10.4 mph - N/A   Clear
10:53 AM 88.0 °F 93.8 °F 71.1 °F 57% 29.95 in 10.0 mi Variable 6.9 mph - N/A   Clear
11:53 AM 91.9 °F 98.4 °F 71.1 °F 50% 29.94 in 10.0 mi ESE 4.6 mph - N/A   Clear
12:53 PM 95.0 °F 100.7 °F 69.1 °F 43% 29.93 in 10.0 mi SE 6.9 mph - N/A   Clear
1:53 PM 97.0 °F 102.2 °F 68.0 °F 39% 29.90 in 10.0 mi Variable 4.6 mph - N/A   Clear
2:53 PM 97.0 °F 100.4 °F 66.0 °F 36% 29.88 in 10.0 mi Calm Calm - N/A   Mostly Cloudy
3:53 PM 98.1 °F 101.8 °F 66.0 °F 35% 29.86 in 10.0 mi ENE 8.1 mph - N/A   Partly Cloudy
4:53 PM 100.0 °F 103.6 °F 64.9 °F 32% 29.85 in 10.0 mi NE 10.4 mph - N/A   Clear
5:53 PM 99.0 °F 102.3 °F 64.9 °F 33% 29.84 in 10.0 mi East 12.7 mph 20.7 mph N/A   Partly Cloudy
6:53 PM 98.1 °F 101.2 °F 64.9 °F 34% 29.83 in 10.0 mi East 15.0 mph - N/A   Scattered Clouds
7:53 PM 95.0 °F 97.0 °F 64.0 °F 36% 29.83 in 10.0 mi East 11.5 mph - N/A   Clear
8:53 PM 91.0 °F 92.6 °F 64.0 °F 41% 29.85 in 10.0 mi East 12.7 mph - N/A   Clear
9:53 PM 89.1 °F 89.0 °F 61.0 °F 39% 29.86 in 10.0 mi ESE 10.4 mph - N/A   Clear
10:53 PM 87.1 °F 86.5 °F 59.0 °F 39% 29.90 in 10.0 mi ESE 11.5 mph - N/A   Clear
11:53 PM 84.0 °F 84.5 °F 62.1 °F 47% 29.90 in 10.0 mi ESE 10.4 mph - N/A   Clear